FW4346 Weather Reports


Display with metric or nautical units.
time (UTC)temp
F
wind
direction
speed
MPH
gust
MPH
rain 1hr
in
rain 24hr
in
rain mn
in
humidity
%
barometer
mb
20200401060015 41 272 7.0 14.0 0.00 0.00 0.00 63 1016.8
20200401054542 41 255 9.0 17.0 0.00 0.00 0.00 62 1017.0
20200401053004 42 284 9.0 16.0 0.00 0.00 0.00 61 1016.9
20200401051502 42 276 9.0 17.0 0.00 0.00 0.00 59 1017.1
20200401050210 42 248 10.0 18.0 0.00 0.00 0.00 58 1017.0
20200401044643 43 284 12.0 21.0 0.00 0.00 0.00 57 1016.9
20200401043136 43 268 11.0 18.0 0.00 0.00 0.00 57 1016.8
20200401041639 43 275 7.0 19.0 0.00 0.00 0.00 57 1016.6
20200401040212 43 250 10.0 18.0 0.00 0.00 0.00 56 1016.5
20200401034652 43 277 10.0 16.0 0.00 0.00 0.00 56 1016.5
20200401033346 44 270 11.0 20.0 0.00 0.00 0.00 57 1016.4
20200401031628 44 269 8.0 21.0 0.00 0.00 0.00 55 1016.3
20200401030237 44 287 12.0 19.0 0.00 0.00 0.00 55 1016.3
20200401024639 45 275 11.0 23.0 0.00 0.00 0.00 54 1016.2
20200401023135 45 258 12.0 24.0 0.00 0.00 0.00 53 1016.2
20200401021641 45 274 13.0 21.0 0.00 0.00 0.00 52 1016.1
20200401020158 46 261 14.0 28.0 0.00 0.00 0.00 50 1015.7
20200401014619 47 279 17.0 30.0 0.00 0.00 0.00 48 1015.5
20200401013110 48 244 14.0 23.0 0.00 0.00 0.00 47 1015.2
20200401011643 48 291 12.0 28.0 0.00 0.00 0.00 47 1015.6
20200401010048 49 287 12.0 29.0 0.00 0.00 0.00 46 1015.5
20200401004637 50 275 17.0 27.0 0.00 0.00 0.00 43 1015.5
20200401003046 51 254 15.0 28.0 0.00 0.00 0.00 41 1015.5
20200401001558 51 274 14.0 27.0 0.00 0.00 0.00 43 1015.2
20200401000041 51 279 13.0 27.0 0.00 0.00 0.00 40 1015.2
20200331234534 51 280 18.0 31.0 0.00 0.00 0.00 41 1015.2
20200331233145 51 277 16.0 28.0 0.00 0.00 0.00 41 1015.3
20200331231617 51 263 14.0 24.0 0.00 0.00 0.00 39 1015.1
20200331230045 51 277 14.0 28.0 0.00 0.00 0.00 40 1015.0
20200331224602 51 292 16.0 27.0 0.00 0.00 0.00 42 1015.0
20200331223104 51 254 13.0 27.0 0.00 0.00 0.00 41 1015.1
20200331221556 51 253 12.0 24.0 0.00 0.00 0.00 40 1015.1
20200331220050 51 267 18.0 28.0 0.00 0.00 0.00 42 1015.0
20200331214547 51 292 17.0 27.0 0.00 0.00 0.00 41 1015.0
20200331213030 52 277 16.0 29.0 0.00 0.00 0.00 41 1015.0
20200331211546 51 248 18.0 30.0 0.00 0.00 0.00 41 1015.0
20200331210022 51 254 17.0 25.0 0.00 0.00 0.00 44 1015.1
20200331204540 50 279 16.0 26.0 0.00 0.00 0.00 45 1015.5
20200331203019 49 262 15.0 25.0 0.00 0.00 0.00 48 1015.5
20200331201524 49 242 18.0 26.0 0.00 0.00 0.00 48 1015.5
20200331200017 49 240 15.0 26.0 0.00 0.00 0.00 49 1015.4
20200331194526 48 252 13.0 27.0 0.00 0.00 0.00 52 1015.5
20200331193012 48 270 15.0 25.0 0.00 0.00 0.00 50 1015.4
20200331191525 47 270 15.0 27.0 0.00 0.00 0.00 52 1015.4
20200331184506 46 292 14.0 21.0 0.00 0.00 0.00 57 1015.6
20200331181503 44 279 7.0 27.0 0.00 0.00 0.00 56 1015.4
20200331180001 45 272 12.0 26.0 0.00 0.00 0.00 60 1015.8
20200331174632 45 286 12.0 32.0 0.00 0.00 0.00 60 1015.5
20200331173222 46 272 17.0 31.0 0.00 0.00 0.00 54 1015.4
20200331171631 46 291 12.0 19.0 0.00 0.00 0.00 64 1015.1
20200331170140 45 312 9.0 16.0 0.00 0.00 0.00 67 1015.1
20200331164600 45 292 7.0 14.0 0.00 0.00 0.00 67 1015.0
20200331163142 44 267 8.0 18.0 0.00 0.00 0.00 69 1015.1
20200331161549 43 310 5.0 11.0 0.00 0.00 0.00 72 1014.9
20200331160101 43 277 3.0 10.0 0.00 0.00 0.00 70 1014.7
20200331154645 43 280 2.0 4.0 0.00 0.00 0.00 72 1014.7
20200331153054 42 285 0.0 4.0 0.00 0.00 0.00 73 1014.9
20200331151544 42 254 2.0 7.0 0.00 0.00 0.00 72 1014.9
20200331150055 42 252 4.0 9.0 0.00 0.00 0.00 72 1014.5
20200331144616 41 289 1.0 10.0 0.00 0.00 0.00 73 1013.9
20200331143048 41 258 6.0 11.0 0.00 0.00 0.00 74 1014.4
20200331141544 41 240 6.0 12.0 0.00 0.00 0.00 76 1014.2
20200331140019 41 284 0.0 8.0 0.00 0.00 0.00 78 1013.3
20200331134516 41 284 2.0 10.0 0.00 0.00 0.00 78 1013.9
20200331133011 42 289 4.0 10.0 0.00 0.00 0.00 76 1014.1
20200331131530 42 284 7.0 12.0 0.00 0.00 0.00 76 1014.1
20200331130007 41 289 4.0 12.0 0.00 0.00 0.00 77 1013.7
20200331124502 41 285 4.0 10.0 0.00 0.00 0.00 79 1013.8
20200331123132 41 290 2.0 5.0 0.00 0.00 0.00 80 1013.7
20200331121640 41 296 3.0 8.0 0.00 0.00 0.00 80 1013.9
20200331120121 41 309 5.0 10.0 0.00 0.00 0.00 77 1013.8
20200331114732 41 315 0.0 3.0 0.00 0.00 0.00 76 1013.5
20200331113100 42 315 3.0 6.0 0.00 0.00 0.00 75 1013.3
20200331111637 42 305 4.0 7.0 0.00 0.00 0.00 74 1013.5
20200331110128 42 281 2.0 7.0 0.00 0.00 0.00 74 1013.9
20200331104622 43 266 2.0 11.0 0.00 0.00 0.00 73 1013.7
20200331103138 42 261 1.0 6.0 0.00 0.00 0.00 75 1013.9
20200331101603 41 255 2.0 7.0 0.00 0.00 0.00 75 1013.6
20200331100135 41 264 1.0 3.0 0.00 0.00 0.00 75 1013.3
20200331094601 41 261 1.0 6.0 0.00 0.00 0.00 75 1013.5
20200331093134 41 280 1.0 3.0 0.00 0.00 0.00 76 1013.5
20200331091636 41 281 0.0 3.0 0.00 0.00 0.00 78 1013.6
20200331090138 41 277 4.0 9.0 0.00 0.00 0.00 78 1014.4
20200331084605 41 263 2.0 6.0 0.00 0.00 0.00 76 1014.3
20200331083107 42 243 1.0 4.0 0.00 0.00 0.00 76 1014.3
20200331081743 41 243 0.0 1.0 0.00 0.00 0.00 74 1014.3
20200331080058 42 243 0.0 1.0 0.00 0.00 0.00 73 1014.4
20200331074644 42 243 0.0 0.0 0.00 0.00 0.00 72 1014.4
20200331073102 42 243 1.0 3.0 0.00 0.00 0.00 72 1014.4
20200331071637 42 243 1.0 5.0 0.00 0.00 0.00 71 1014.5
20200331070106 42 233 4.0 7.0 0.00 0.00 0.00 71 1014.3
20200331064620 42 226 5.0 7.0 0.00 0.00 0.00 71 1014.2
20200331063057 43 238 3.0 7.0 0.00 0.00 0.00 70 1014.1
20200331061522 43 265 5.0 9.0 0.00 0.00 0.00 70 1014.2